Regional Weather Roundup
Issued by NWS

Home | Current Version | Previous Version | Text Only | Print | Product List | Glossary On
Versions: 1 2 3 4 5 6 7 8 9 10 11 12 13 14 15 16 17 18 19 20 21 22 23 24 25 26 27 28 29 30 31 32 33 34 35 36 37 38 39 40 41 42 43 44 45 46 47 48 49 50
551
ASUS44 KLIX 180712
RWRLA
LOUISIANA WEATHER ROUNDUP
NATIONAL WEATHER SERVICE NEW ORLEANS LA
100 AM CST SUN FEB 18 2018

NOTE: "FAIR" INDICATES FEW OR NO CLOUDS BELOW 12,000 FEET WITH NO
      SIGNIFICANT WEATHER AND/OR OBSTRUCTIONS TO VISIBILITY.
      SKY/WX - SKY CONDITION AND SIGNIFICANT WEATHER.
      TMP - AIR TEMPERATURE.    DP   - DEWPOINT TEMPERATURE.
      RH  - RELATIVE HUMIDITY.  PRES - PRESSURE.
      HX  - HEAT INDEX.         WCI  - WIND CHILL INDEX.

*  THESE STATIONS ARE NOT NWS OR FAA STATIONS AND ARE NOT UNDER
   NWS QUALITY CONTROL.

LAZ040-048-061>063-065-066-069-180800-
SOUTHEAST LOUISIANA

CITY           SKY/WX    TMP DP  RH WIND       PRES   REMARKS
N.O. INTL ARPT CLOUDY    69  67  93 CALM      30.14S
N.O. LAKEFRONT FAIR      67  65  93 SW6       30.14S
N.O. DOWNTOWN* FAIR      70  66  87 S3        30.15
RESERVE*       FAIR      68  65  91 CALM      30.14S
SLIDELL        CLOUDY    68  63  84 CALM      30.13S
BATON ROUGE    CLOUDY    62  60  93 NE5       30.15S
BOOTHVILLE     NOT AVBL
BELLE CHASSE   FAIR      62  62 100 CALM      30.13S FOG
BOGALUSA*      CLOUDY    65  58  80 NE7       30.16S
GALLIANO*      PTSUNNY   61  59  92 CALM      30.14S FOG
NEW ROADS*     CLOUDY    59  58  96 N6        30.16S
GONZALES*      NOT AVBL
HAMMOND*       CLOUDY    64  63  94 N3        30.14S
HOUMA*         HVY RAIN  64  64 100 CALM      30.13F VSB 1/4
PORT FOURCHON* MOSUNNY   70  68  94 CALM      30.15S

$$

LAZ041-044-053-054-180800-
SOUTHWEST LOUISIANA

CITY           SKY/WX    TMP DP  RH WIND       PRES   REMARKS
LAKE CHARLES   CLOUDY    62  60  93 NE7       30.13S
LAFAYETTE      CLOUDY    63  61  93 N7        30.15S
PATTERSON      FOG       67  67 100 NW3       30.14S VSB 1/2
SALT POINT       N/A     66  65  96 CALM      30.12S
NEW IBERIA     MOCLDY    64  60  87 N7        30.15R
CHENAULT AIRPK CLOUDY    61  60  95 N6        30.15S

$$

LAZ027-028-180800-
CENTRAL LOUISIANA

CITY           SKY/WX    TMP DP  RH WIND       PRES   REMARKS
FORT POLK      CLOUDY    56  55  96 CALM      30.16S
ALEXANDRIA INT CLOUDY    55  52  89 NE7       30.16F
ALEXANDRIA     CLOUDY    54  52  93 NE6       30.17F

$$

LAZ001-002-180800-
NORTHWEST LOUISIANA

CITY           SKY/WX    TMP DP  RH WIND       PRES   REMARKS
SHREVEPORT     CLOUDY    50  49  96 NE9       30.18F
BARKSDALE AFB  CLOUDY    49  46  88 E8        30.20S
DTN SHREVEPORT   N/A    N/A N/A N/A MISG        N/A

$$

LAZ014-016-180800-
NORTHEAST LOUISIANA

CITY           SKY/WX    TMP DP  RH WIND       PRES   REMARKS
MONROE         CLOUDY    49  46  90 NE9       30.22F
TALLULAH       CLOUDY    49  49 100 NE10      30.21F

$$





USA.gov is the U.S. government's official web portal to all federal, state and local government web resources and services.